{"data":{"norad_id":60418,"epoch":"2026-05-25T00:31:42.958272Z","epoch_age_seconds":69591,"freshness":"FRESH","line1":"1 60418U 24141W   26145.02202498  .00004141  00000+0  13363-3 0  9994","line2":"2 60418  53.1618 247.5930 0001378  66.6052 293.5095 15.34397091101275","mean_motion":15.34397091,"eccentricity":0.0001378,"inclination_deg":53.1618,"raan_deg":247.593,"arg_perigee_deg":66.6052,"mean_anomaly_deg":293.5095,"bstar":0.00013363,"rev_number":10127,"period_min":93.847936003419,"perigee_km":461.76921740527,"apogee_km":463.65455535835,"semimajor_km":6840.8488863818,"source":"CELESTRAK","updated_at":"2026-05-25T13:38:19.271733Z"}}